BAW5E EGLL-KMIA

Flight info

Callsign BAW5E
Flight time N/A
Altitude 36000
Route +CPT DCT DIDZA L9 OKSAW DCT BIBPE DCT BUCGO DCT TIGWE DCT FELCA DCT NICXI DCT OFSOX DCT BANBA DCT KER DCT LIMRI/M085F370 DCT 52N020W 51N030W 50N040W 49N050W DCT JOOPY/N0480F380 DCT NANSO/M084F380 DCT LOMPI M202 JEBBY DCT SELIM M203 SNAGY/N0482F380 BNFSH3
Aircraft A388/J-SADE2E3FGHIJ3J4J5M1RWXY/LB1D1

Departure

Time 2026-04-30 18:15
Airport London Heathrow Airport (EGLL)

Arrival

Time N/A
Airport Miami International Airport (KMIA)
Time Latitude Longitude Altitude Speed Heading
2026-04-30 17:39 51.47054 -0.47494 92 ft 0 kts 270°
2026-04-30 18:02 51.47054 -0.47440 92 ft 2 kts 270°
2026-04-30 18:02 51.47063 -0.47377 93 ft 2 kts 232°
2026-04-30 18:03 51.47095 -0.47362 92 ft 0 kts 173°
2026-04-30 18:04 51.47076 -0.47358 95 ft 0 kts 175°
2026-04-30 18:08 51.47020 -0.47354 95 ft 10 kts 178°
2026-04-30 18:09 51.46699 -0.47355 93 ft 10 kts 191°
2026-04-30 18:10 51.46652 -0.47976 92 ft 15 kts 270°
2026-04-30 18:11 51.46652 -0.48067 95 ft 1 kts 270°
2026-04-30 18:11 51.46651 -0.48373 92 ft 9 kts 269°
2026-04-30 18:12 51.46516 -0.48468 94 ft 6 kts 176°
2026-04-30 18:13 51.46475 -0.48360 97 ft 7 kts 85°
2026-04-30 18:13 51.46478 -0.47409 93 ft 105 kts 89°
2026-04-30 18:14 51.46506 -0.43593 584 ft 158 kts 88°
2026-04-30 18:15 51.45287 -0.39248 1956 ft 170 kts 164°
2026-04-30 18:15 51.41952 -0.43053 2681 ft 247 kts 231°
2026-04-30 18:16 51.40888 -0.48639 3863 ft 276 kts 265°
2026-04-30 18:16 51.41286 -0.54744 5522 ft 278 kts 279°
2026-04-30 18:17 51.41955 -0.57709 6150 ft 286 kts 290°
2026-04-30 18:17 51.42740 -0.60662 6840 ft 290 kts 291°
2026-04-30 18:17 51.44337 -0.66646 8194 ft 296 kts 290°
2026-04-30 18:18 51.45142 -0.69700 8880 ft 298 kts 290°
2026-04-30 18:18 51.45951 -0.72791 9520 ft 303 kts 290°
2026-04-30 18:18 51.46769 -0.75923 10183 ft 306 kts 290°
2026-04-30 18:18 51.47602 -0.79123 10537 ft 320 kts 290°
2026-04-30 18:19 51.48480 -0.82510 10710 ft 338 kts 290°
2026-04-30 18:19 51.49403 -0.86075 10897 ft 354 kts 290°
2026-04-30 18:19 51.50359 -0.89761 11361 ft 360 kts 290°
2026-04-30 18:19 51.51325 -0.93483 11916 ft 364 kts 290°
2026-04-30 18:20 51.52303 -0.97256 12468 ft 367 kts 290°
2026-04-30 18:20 51.53285 -1.01060 13011 ft 371 kts 290°
2026-04-30 18:20 51.54275 -1.04904 13565 ft 374 kts 290°
2026-04-30 18:20 51.55275 -1.08790 14073 ft 378 kts 290°
2026-04-30 18:21 51.56282 -1.12713 14608 ft 380 kts 290°
2026-04-30 18:21 51.57293 -1.16659 15089 ft 384 kts 290°
2026-04-30 18:21 51.58311 -1.20639 15598 ft 386 kts 290°
2026-04-30 18:21 51.59335 -1.24651 16088 ft 389 kts 289°
2026-04-30 18:22 51.60365 -1.28690 16568 ft 392 kts 289°
2026-04-30 18:22 51.62440 -1.36855 17536 ft 397 kts 289°
2026-04-30 18:22 51.63488 -1.40986 18009 ft 400 kts 289°
2026-04-30 18:23 51.64542 -1.45154 18487 ft 403 kts 289°
2026-04-30 18:23 51.65598 -1.49335 18878 ft 405 kts 289°
2026-04-30 18:23 51.66661 -1.53551 19279 ft 408 kts 289°
2026-04-30 18:23 51.67731 -1.57803 19668 ft 411 kts 289°
2026-04-30 18:24 51.69849 -1.66412 20434 ft 414 kts 284°
2026-04-30 18:24 51.70571 -1.70901 20801 ft 413 kts 276°
2026-04-30 18:24 51.70939 -1.75484 21162 ft 413 kts 271°
2026-04-30 18:25 51.71250 -1.80044 21570 ft 416 kts 272°
2026-04-30 18:25 51.71926 -1.89358 22294 ft 421 kts 272°
2026-04-30 18:25 51.71991 -1.90243 22365 ft 422 kts 272°
2026-04-30 18:26 51.72663 -1.99621 23105 ft 426 kts 272°
2026-04-30 18:26 51.73000 -2.04391 23470 ft 429 kts 271°
2026-04-30 18:26 51.73336 -2.09184 23791 ft 432 kts 271°
2026-04-30 18:27 51.74006 -2.18835 24479 ft 434 kts 271°
2026-04-30 18:27 51.74339 -2.23683 24828 ft 435 kts 271°
2026-04-30 18:28 51.75004 -2.33412 25539 ft 437 kts 272°
2026-04-30 18:28 51.75334 -2.38292 25893 ft 439 kts 272°
2026-04-30 18:28 51.75990 -2.48107 26648 ft 441 kts 272°
2026-04-30 18:29 51.76315 -2.53037 27029 ft 443 kts 272°
2026-04-30 18:29 51.77290 -2.67949 28375 ft 447 kts 272°
2026-04-30 18:30 51.77826 -2.76288 29070 ft 450 kts 272°
2026-04-30 18:30 51.78468 -2.86399 29859 ft 455 kts 273°
2026-04-30 18:31 51.78789 -2.91499 30267 ft 457 kts 273°
2026-04-30 18:31 51.79427 -3.01760 30966 ft 462 kts 272°
2026-04-30 18:32 51.80063 -3.12136 31622 ft 466 kts 272°
2026-04-30 18:32 51.80379 -3.17348 31943 ft 468 kts 272°
2026-04-30 18:32 51.81009 -3.27845 32598 ft 471 kts 272°
2026-04-30 18:33 51.81322 -3.33133 32919 ft 473 kts 272°
2026-04-30 18:33 51.81944 -3.43760 33571 ft 477 kts 272°
2026-04-30 18:33 51.82253 -3.49113 33903 ft 479 kts 271°
2026-04-30 18:34 51.82618 -3.54474 34189 ft 483 kts 276°
2026-04-30 18:34 51.83999 -3.65177 34707 ft 489 kts 278°
2026-04-30 18:34 51.84700 -3.70561 35047 ft 489 kts 278°
2026-04-30 18:35 51.85396 -3.75956 35396 ft 489 kts 278°
2026-04-30 18:35 51.86087 -3.81343 35761 ft 489 kts 278°
2026-04-30 18:35 51.86776 -3.86732 36083 ft 490 kts 278°
2026-04-30 18:36 51.88834 -4.02943 36093 ft 492 kts 278°
2026-04-30 18:37 51.90877 -4.19229 36091 ft 492 kts 278°
2026-04-30 18:37 51.92229 -4.30108 36085 ft 492 kts 278°
2026-04-30 18:38 51.93572 -4.41011 36093 ft 494 kts 278°
2026-04-30 18:38 51.94906 -4.51926 36093 ft 495 kts 278°
2026-04-30 18:39 51.96235 -4.62888 36093 ft 495 kts 278°
2026-04-30 18:39 51.97524 -4.73612 36089 ft 495 kts 278°
2026-04-30 18:40 51.98832 -4.84576 36086 ft 495 kts 277°
2026-04-30 18:40 52.00127 -4.95523 36076 ft 494 kts 277°
2026-04-30 18:41 52.01412 -5.06474 36072 ft 493 kts 277°
2026-04-30 18:41 52.02452 -5.17454 36069 ft 490 kts 270°
2026-04-30 18:42 52.02318 -5.28356 36062 ft 484 kts 260°
2026-04-30 18:42 52.01163 -5.44623 36055 ft 484 kts 260°
2026-04-30 18:45 51.96789 -6.04333 36067 ft 485 kts 260°
2026-04-30 18:46 51.95958 -6.15197 36064 ft 486 kts 259°
2026-04-30 18:46 51.95599 -6.26162 36056 ft 490 kts 269°
2026-04-30 18:47 51.96390 -6.37183 36062 ft 493 kts 274°
2026-04-30 18:47 51.97308 -6.48212 36061 ft 494 kts 274°
2026-04-30 18:48 51.98207 -6.59262 36055 ft 494 kts 274°
2026-04-30 18:48 51.99097 -6.70314 36063 ft 494 kts 274°
2026-04-30 18:49 51.99977 -6.81375 36068 ft 495 kts 274°
2026-04-30 18:49 52.00848 -6.92457 36069 ft 495 kts 273°
2026-04-30 18:50 52.01710 -7.03558 36071 ft 496 kts 273°
2026-04-30 18:50 52.02561 -7.14667 36071 ft 496 kts 273°
2026-04-30 18:51 52.03403 -7.25787 36071 ft 497 kts 273°
2026-04-30 18:51 52.04235 -7.36922 36072 ft 497 kts 272°
2026-04-30 18:52 52.05058 -7.48071 36055 ft 497 kts 272°
2026-04-30 18:52 52.05864 -7.59151 36049 ft 497 kts 272°
2026-04-30 18:53 52.06670 -7.70380 36047 ft 497 kts 272°
2026-04-30 18:53 52.07461 -7.81547 36043 ft 498 kts 272°
2026-04-30 18:54 52.08237 -7.92653 36040 ft 498 kts 272°
2026-04-30 18:54 52.09010 -8.03876 36041 ft 499 kts 271°
2026-04-30 18:55 52.09774 -8.15106 36042 ft 500 kts 271°
2026-04-30 18:55 52.10900 -8.31987 36044 ft 502 kts 271°
2026-04-30 18:56 52.12006 -8.48925 36042 ft 502 kts 271°
2026-04-30 18:57 52.13089 -8.65917 36039 ft 503 kts 271°
2026-04-30 18:57 52.13798 -8.77262 36036 ft 504 kts 270°
2026-04-30 18:58 52.14846 -8.94331 36029 ft 506 kts 270°
2026-04-30 18:59 52.15870 -9.11428 36035 ft 506 kts 270°
2026-04-30 19:00 52.17198 -9.34276 36025 ft 507 kts 270°
2026-04-30 19:01 52.18183 -9.57166 36013 ft 503 kts 263°
2026-04-30 19:02 52.17956 -9.74259 36006 ft 505 kts 263°
2026-04-30 19:03 52.17688 -9.97171 36006 ft 506 kts 263°
2026-04-30 19:04 52.17350 -10.20085 36012 ft 509 kts 263°
2026-04-30 19:05 52.16965 -10.43138 36005 ft 509 kts 263°
2026-04-30 19:06 52.16534 -10.66181 36003 ft 509 kts 263°
2026-04-30 19:06 52.16181 -10.83474 35997 ft 509 kts 263°
2026-04-30 19:07 52.15803 -11.00771 35999 ft 510 kts 263°
2026-04-30 19:08 52.15259 -11.23858 35998 ft 511 kts 263°
2026-04-30 19:09 52.14823 -11.41125 36003 ft 511 kts 263°
2026-04-30 19:09 52.14516 -11.52700 36003 ft 512 kts 263°
2026-04-30 19:10 52.13868 -11.75859 36013 ft 512 kts 263°
2026-04-30 19:11 52.13352 -11.93249 36011 ft 513 kts 264°
2026-04-30 19:12 52.12994 -12.04836 36006 ft 513 kts 264°
2026-04-30 19:12 52.12624 -12.16415 36008 ft 513 kts 264°
2026-04-30 19:13 52.11851 -12.39579 36013 ft 512 kts 264°
2026-04-30 19:14 52.11447 -12.51145 36010 ft 512 kts 264°
2026-04-30 19:14 52.11033 -12.62704 36010 ft 512 kts 264°
2026-04-30 19:15 52.10607 -12.74261 36006 ft 512 kts 264°
2026-04-30 19:15 52.09947 -12.91609 36010 ft 512 kts 264°
2026-04-30 19:16 52.09493 -13.03153 36009 ft 512 kts 264°
2026-04-30 19:17 52.08790 -13.20504 36010 ft 513 kts 264°
2026-04-30 19:17 52.08061 -13.37848 36023 ft 513 kts 264°
2026-04-30 19:18 52.07393 -13.53241 36017 ft 513 kts 264°
2026-04-30 19:19 52.06793 -13.66692 36030 ft 513 kts 264°
2026-04-30 19:19 52.05995 -13.84049 36021 ft 514 kts 264°
2026-04-30 19:20 52.05538 -13.93737 36028 ft 513 kts 264°
2026-04-30 19:21 52.04705 -14.11012 36035 ft 513 kts 264°
2026-04-30 19:22 52.03550 -14.34105 36030 ft 513 kts 264°
2026-04-30 19:23 52.01733 -14.68723 36028 ft 513 kts 264°
2026-04-30 19:24 52.00789 -14.86042 36039 ft 514 kts 264°
2026-04-30 19:25 52.00113 -15.14978 36042 ft 515 kts 274°
2026-04-30 19:26 52.00752 -15.38194 36065 ft 515 kts 272°
2026-04-30 19:27 52.01053 -15.55621 36069 ft 515 kts 272°
2026-04-30 19:28 52.01325 -15.73047 36075 ft 514 kts 272°
2026-04-30 19:29 52.01649 -15.96161 36068 ft 513 kts 272°
2026-04-30 19:30 52.01928 -16.19317 36077 ft 513 kts 272°
2026-04-30 19:31 52.02160 -16.42433 36080 ft 511 kts 272°
2026-04-30 19:31 52.02306 -16.59738 36093 ft 510 kts 272°
2026-04-30 19:32 52.02388 -16.71257 36098 ft 510 kts 272°
2026-04-30 19:32 52.02459 -16.82767 36103 ft 509 kts 272°
2026-04-30 19:33 52.02519 -16.94246 36112 ft 508 kts 272°
2026-04-30 19:33 52.02567 -17.05706 36112 ft 507 kts 272°
2026-04-30 19:34 52.02605 -17.17149 36113 ft 506 kts 272°
2026-04-30 19:35 52.02640 -17.34291 36115 ft 506 kts 272°
2026-04-30 19:35 52.02650 -17.45697 36119 ft 505 kts 272°
2026-04-30 19:36 52.02648 -17.57119 36121 ft 505 kts 272°
2026-04-30 19:36 52.02626 -17.74239 36130 ft 505 kts 272°
2026-04-30 19:37 52.02597 -17.85571 36136 ft 505 kts 272°
2026-04-30 19:37 52.02557 -17.96967 36144 ft 505 kts 272°
2026-04-30 19:38 52.02506 -18.08376 36146 ft 505 kts 272°
2026-04-30 19:38 52.02445 -18.19764 36285 ft 504 kts 272°
2026-04-30 19:39 52.02409 -18.25460 36411 ft 504 kts 272°
2026-04-30 19:39 52.02371 -18.31143 36538 ft 504 kts 272°
2026-04-30 19:39 52.02331 -18.36829 36652 ft 503 kts 272°
2026-04-30 19:39 52.02288 -18.42498 36787 ft 503 kts 271°
2026-04-30 19:40 52.02242 -18.48173 36915 ft 503 kts 271°
2026-04-30 19:40 52.02194 -18.53845 37042 ft 502 kts 271°
2026-04-30 19:40 52.02143 -18.59509 37159 ft 502 kts 271°
2026-04-30 19:40 52.02089 -18.65180 37163 ft 501 kts 271°
2026-04-30 19:41 52.01973 -18.76481 37168 ft 501 kts 271°
2026-04-30 19:41 52.01847 -18.87782 37168 ft 501 kts 271°
2026-04-30 19:42 52.01709 -18.99078 37175 ft 500 kts 271°
2026-04-30 19:42 52.01562 -19.10372 37175 ft 500 kts 271°
2026-04-30 19:43 52.01403 -19.21657 37184 ft 500 kts 271°
2026-04-30 19:44 52.01146 -19.38515 37183 ft 500 kts 271°
2026-04-30 19:44 52.00961 -19.49802 37197 ft 500 kts 271°
2026-04-30 19:45 52.00765 -19.61080 37200 ft 500 kts 271°
2026-04-30 19:45 52.00557 -19.72356 37198 ft 500 kts 270°
2026-04-30 19:46 52.00340 -19.83618 37205 ft 499 kts 270°
2026-04-30 19:46 52.00120 -19.94874 37206 ft 499 kts 270°
2026-04-30 19:47 51.99641 -20.06101 37206 ft 500 kts 266°
2026-04-30 19:47 51.98969 -20.17310 37210 ft 499 kts 267°
2026-04-30 19:48 51.98338 -20.28518 37212 ft 499 kts 267°
2026-04-30 19:48 51.97694 -20.39704 37216 ft 498 kts 267°
2026-04-30 19:49 51.97037 -20.50897 37218 ft 498 kts 267°
2026-04-30 19:49 51.96024 -20.67657 37231 ft 498 kts 267°
2026-04-30 19:50 51.95330 -20.78825 37235 ft 498 kts 267°
2026-04-30 19:50 51.94631 -20.89903 37232 ft 498 kts 267°
2026-04-30 19:51 51.93911 -21.01130 37236 ft 498 kts 267°
2026-04-30 19:51 51.93190 -21.12203 37239 ft 498 kts 267°
2026-04-30 19:52 51.92454 -21.23353 37246 ft 498 kts 266°
2026-04-30 19:52 51.91707 -21.34499 37248 ft 498 kts 266°
2026-04-30 19:53 51.90950 -21.45640 37250 ft 498 kts 266°
2026-04-30 19:53 51.90181 -21.56782 37267 ft 498 kts 266°
2026-04-30 19:54 51.89403 -21.67920 37269 ft 498 kts 266°
2026-04-30 19:54 51.88613 -21.79058 37271 ft 498 kts 266°
2026-04-30 19:55 51.87812 -21.90197 37268 ft 498 kts 266°
2026-04-30 19:55 51.87001 -22.01336 37277 ft 498 kts 266°
2026-04-30 19:56 51.86179 -22.12474 37278 ft 499 kts 266°
2026-04-30 19:56 51.85346 -22.23612 37276 ft 499 kts 266°
2026-04-30 19:57 51.84502 -22.34753 37278 ft 499 kts 266°
2026-04-30 19:57 51.83647 -22.45906 37285 ft 500 kts 266°
2026-04-30 19:58 51.82785 -22.56987 37283 ft 500 kts 266°
2026-04-30 19:58 51.81902 -22.68217 37287 ft 501 kts 266°
2026-04-30 19:59 51.81012 -22.79393 37292 ft 502 kts 266°
2026-04-30 20:00 51.79660 -22.96107 37297 ft 503 kts 266°
2026-04-30 20:00 51.78741 -23.07306 37304 ft 504 kts 266°
2026-04-30 20:01 51.77338 -23.24139 37305 ft 505 kts 266°
2026-04-30 20:01 51.76389 -23.35369 37310 ft 505 kts 266°
2026-04-30 20:02 51.74942 -23.52225 37314 ft 506 kts 266°
2026-04-30 20:03 51.73469 -23.69100 37321 ft 507 kts 266°
2026-04-30 20:03 51.72473 -23.80350 37324 ft 507 kts 266°
2026-04-30 20:04 51.71466 -23.91610 37332 ft 507 kts 266°
2026-04-30 20:05 51.69934 -24.08483 37336 ft 507 kts 266°
2026-04-30 20:05 51.68378 -24.25353 37335 ft 507 kts 265°
2026-04-30 20:06 51.67328 -24.36581 37338 ft 507 kts 265°
2026-04-30 20:06 51.66267 -24.47808 37341 ft 507 kts 265°
2026-04-30 20:07 51.65196 -24.59018 37346 ft 506 kts 265°
2026-04-30 20:08 51.63755 -24.73930 37346 ft 506 kts 265°
2026-04-30 20:08 51.62661 -24.85114 37345 ft 506 kts 265°
2026-04-30 20:09 51.61557 -24.96287 37349 ft 505 kts 265°
2026-04-30 20:09 51.59882 -25.13024 37353 ft 505 kts 265°
2026-04-30 20:10 51.58184 -25.29739 37361 ft 505 kts 265°
2026-04-30 20:11 51.56463 -25.46445 37353 ft 505 kts 265°
2026-04-30 20:11 51.55302 -25.57573 37364 ft 505 kts 265°
2026-04-30 20:12 51.53540 -25.74264 37370 ft 505 kts 264°
2026-04-30 20:13 51.52353 -25.85381 37371 ft 505 kts 264°
2026-04-30 20:13 51.51154 -25.96503 37366 ft 505 kts 264°
2026-04-30 20:14 51.49946 -26.07607 37371 ft 505 kts 264°
2026-04-30 20:14 51.48726 -26.18715 37373 ft 505 kts 264°
2026-04-30 20:15 51.47495 -26.29820 37379 ft 505 kts 264°
2026-04-30 20:15 51.46254 -26.40923 37379 ft 506 kts 264°
2026-04-30 20:16 51.45003 -26.52010 37375 ft 506 kts 264°
2026-04-30 20:16 51.43750 -26.63021 37376 ft 506 kts 263°
2026-04-30 20:17 51.42475 -26.74118 37378 ft 506 kts 263°
2026-04-30 20:17 51.41192 -26.85200 37381 ft 506 kts 263°
2026-04-30 20:18 51.39897 -26.96275 37382 ft 506 kts 263°
2026-04-30 20:18 51.38592 -27.07350 37387 ft 506 kts 263°
2026-04-30 20:19 51.37275 -27.18428 37386 ft 507 kts 263°
2026-04-30 20:19 51.35948 -27.29499 37389 ft 507 kts 263°
2026-04-30 20:20 51.34610 -27.40561 37389 ft 507 kts 262°
2026-04-30 20:20 51.33263 -27.51616 37391 ft 507 kts 262°
2026-04-30 20:21 51.31904 -27.62673 37392 ft 507 kts 262°
2026-04-30 20:21 51.30533 -27.73730 37395 ft 507 kts 262°
2026-04-30 20:22 51.29154 -27.84766 37397 ft 507 kts 262°
2026-04-30 20:22 51.27763 -27.95808 37392 ft 507 kts 262°
2026-04-30 20:23 51.26363 -28.06836 37397 ft 507 kts 262°
2026-04-30 20:23 51.24952 -28.17860 37400 ft 507 kts 261°
2026-04-30 20:24 51.23533 -28.28861 37400 ft 507 kts 261°
2026-04-30 20:24 51.22100 -28.39877 37400 ft 507 kts 261°
2026-04-30 20:25 51.19942 -28.56315 37402 ft 507 kts 261°
2026-04-30 20:26 51.17750 -28.72818 37418 ft 507 kts 261°
2026-04-30 20:26 51.15533 -28.89314 37413 ft 507 kts 261°
2026-04-30 20:27 51.12540 -29.11293 37400 ft 508 kts 260°
2026-04-30 20:28 51.09508 -29.33235 37410 ft 508 kts 260°
2026-04-30 20:30 51.05657 -29.60643 37419 ft 508 kts 259°
2026-04-30 20:31 51.00978 -29.93490 37419 ft 508 kts 259°
2026-04-30 20:32 50.98695 -30.21123 37415 ft 505 kts 268°
2026-04-30 20:33 50.97819 -30.37793 37417 ft 506 kts 267°
2026-04-30 20:34 50.96839 -30.54466 37420 ft 506 kts 266°
2026-04-30 20:35 50.95827 -30.71141 37424 ft 506 kts 266°
2026-04-30 20:35 50.94785 -30.87820 37423 ft 507 kts 266°
2026-04-30 20:36 50.94076 -30.98933 37427 ft 507 kts 266°
2026-04-30 20:37 50.92994 -31.15604 37429 ft 507 kts 266°
2026-04-30 20:37 50.92265 -31.26624 37430 ft 507 kts 265°
2026-04-30 20:38 50.91519 -31.37734 37433 ft 507 kts 265°
2026-04-30 20:38 50.90763 -31.48835 37430 ft 507 kts 265°
2026-04-30 20:39 50.89609 -31.65489 37432 ft 507 kts 265°
2026-04-30 20:40 50.88432 -31.82132 37434 ft 507 kts 265°
2026-04-30 20:40 50.87633 -31.93231 37434 ft 507 kts 265°
2026-04-30 20:41 50.86415 -32.09881 37435 ft 508 kts 264°
2026-04-30 20:41 50.85588 -32.20984 37436 ft 508 kts 264°
2026-04-30 20:42 50.84752 -32.32077 37437 ft 508 kts 264°
2026-04-30 20:43 50.83477 -32.48725 37437 ft 508 kts 264°
2026-04-30 20:43 50.82613 -32.59823 37437 ft 508 kts 264°
2026-04-30 20:44 50.81299 -32.76453 37438 ft 508 kts 264°
2026-04-30 20:45 50.79508 -32.98629 37445 ft 508 kts 263°
2026-04-30 20:45 50.78597 -33.09706 37443 ft 508 kts 263°
2026-04-30 20:46 50.76744 -33.31852 37440 ft 509 kts 263°
2026-04-30 20:47 50.75331 -33.48395 37443 ft 509 kts 263°
2026-04-30 20:48 50.73888 -33.65006 37448 ft 509 kts 263°
2026-04-30 20:48 50.72912 -33.76084 37447 ft 509 kts 263°
2026-04-30 20:49 50.71926 -33.87149 37450 ft 509 kts 262°
2026-04-30 20:50 50.70427 -34.03754 37448 ft 510 kts 262°
2026-04-30 20:50 50.69413 -34.14822 37447 ft 510 kts 262°
2026-04-30 20:51 50.68390 -34.25880 37452 ft 510 kts 262°
2026-04-30 20:51 50.66836 -34.42452 37448 ft 510 kts 262°
2026-04-30 20:52 50.65786 -34.53510 37448 ft 510 kts 262°
2026-04-30 20:53 50.64192 -34.70072 37450 ft 510 kts 262°
2026-04-30 20:53 50.63116 -34.81110 37455 ft 510 kts 261°
2026-04-30 20:54 50.61665 -34.95815 37454 ft 510 kts 261°
2026-04-30 20:55 50.60011 -35.12356 37450 ft 510 kts 261°
2026-04-30 20:55 50.58894 -35.23381 37454 ft 510 kts 261°
2026-04-30 20:56 50.57200 -35.39908 37454 ft 510 kts 261°
2026-04-30 20:57 50.55482 -35.56425 37450 ft 510 kts 261°
2026-04-30 20:57 50.54324 -35.67431 37450 ft 510 kts 261°
2026-04-30 20:58 50.52566 -35.83935 37454 ft 510 kts 260°
2026-04-30 20:58 50.51389 -35.94862 37453 ft 511 kts 260°
2026-04-30 20:59 50.49591 -36.11360 37456 ft 511 kts 260°
2026-04-30 21:00 50.47158 -36.33343 37450 ft 511 kts 260°
2026-04-30 21:01 50.45303 -36.49835 37455 ft 512 kts 259°
2026-04-30 21:02 50.43424 -36.66322 37453 ft 512 kts 259°
2026-04-30 21:02 50.42158 -36.77303 37454 ft 512 kts 259°
2026-04-30 21:03 50.40883 -36.88276 37453 ft 512 kts 259°
2026-04-30 21:03 50.39596 -36.99252 37454 ft 512 kts 259°
2026-04-30 21:04 50.38299 -37.10229 37458 ft 512 kts 259°
2026-04-30 21:04 50.36332 -37.26688 37454 ft 512 kts 259°
2026-04-30 21:05 50.35008 -37.37650 37455 ft 512 kts 259°
2026-04-30 21:05 50.33674 -37.48605 37456 ft 512 kts 258°
2026-04-30 21:06 50.32338 -37.59487 37459 ft 512 kts 258°
2026-04-30 21:06 50.30975 -37.70501 37459 ft 512 kts 258°
2026-04-30 21:07 50.29621 -37.81356 37454 ft 512 kts 258°
2026-04-30 21:07 50.28247 -37.92278 37456 ft 512 kts 258°
2026-04-30 21:08 50.26863 -38.03193 37455 ft 512 kts 258°
2026-04-30 21:08 50.25467 -38.14112 37455 ft 512 kts 258°
2026-04-30 21:09 50.24064 -38.25008 37453 ft 512 kts 258°
2026-04-30 21:09 50.22649 -38.35903 37454 ft 512 kts 258°
2026-04-30 21:10 50.21224 -38.46799 37455 ft 512 kts 257°
2026-04-30 21:10 50.19789 -38.57680 37458 ft 512 kts 257°
2026-04-30 21:11 50.18343 -38.68563 37456 ft 512 kts 257°
2026-04-30 21:11 50.16887 -38.79439 37456 ft 512 kts 257°
2026-04-30 21:12 50.15422 -38.90295 37456 ft 512 kts 257°
2026-04-30 21:12 50.13947 -39.01145 37457 ft 511 kts 257°
2026-04-30 21:13 50.12464 -39.11981 37455 ft 511 kts 257°
2026-04-30 21:13 50.10970 -39.22810 37457 ft 511 kts 257°
2026-04-30 21:14 50.09467 -39.33627 37455 ft 511 kts 257°
2026-04-30 21:14 50.07965 -39.44356 37452 ft 510 kts 256°
2026-04-30 21:15 50.06444 -39.55146 37458 ft 510 kts 256°
2026-04-30 21:15 50.04918 -39.65921 37453 ft 510 kts 256°
2026-04-30 21:16 50.03387 -39.76691 37456 ft 510 kts 256°
2026-04-30 21:16 50.01849 -39.87442 37455 ft 509 kts 256°
2026-04-30 21:17 50.00301 -39.98189 37452 ft 509 kts 256°
2026-04-30 21:17 49.99196 -40.09036 37447 ft 509 kts 265°
2026-04-30 21:18 49.98753 -40.20019 37446 ft 509 kts 265°
2026-04-30 21:18 49.98209 -40.30997 37455 ft 509 kts 264°
2026-04-30 21:19 49.97587 -40.41950 37452 ft 509 kts 264°
2026-04-30 21:19 49.96943 -40.52905 37454 ft 509 kts 264°
2026-04-30 21:20 49.96287 -40.63850 37451 ft 509 kts 264°
2026-04-30 21:20 49.95617 -40.74782 37459 ft 509 kts 263°
2026-04-30 21:21 49.94935 -40.85714 37456 ft 508 kts 263°
2026-04-30 21:22 49.93898 -41.02009 37446 ft 508 kts 263°
2026-04-30 21:23 49.92470 -41.23886 37447 ft 507 kts 263°
2026-04-30 21:23 49.91382 -41.40146 37456 ft 507 kts 263°
2026-04-30 21:24 49.90641 -41.51024 37449 ft 507 kts 263°
2026-04-30 21:24 49.89889 -41.61893 37447 ft 507 kts 263°
2026-04-30 21:25 49.88745 -41.78176 37453 ft 506 kts 263°
2026-04-30 21:26 49.87579 -41.94430 37449 ft 506 kts 262°
2026-04-30 21:27 49.86391 -42.10671 37440 ft 505 kts 262°
2026-04-30 21:27 49.85587 -42.21479 37433 ft 505 kts 262°
2026-04-30 21:28 49.84362 -42.37697 37450 ft 505 kts 262°
2026-04-30 21:29 49.83116 -42.53889 37437 ft 505 kts 262°
2026-04-30 21:30 49.80988 -42.80859 37433 ft 505 kts 262°
2026-04-30 21:31 49.78799 -43.07790 37444 ft 504 kts 262°
2026-04-30 21:32 49.77456 -43.23933 37444 ft 504 kts 262°
2026-04-30 21:32 49.76549 -43.34679 37438 ft 504 kts 261°
2026-04-30 21:33 49.75170 -43.50793 37442 ft 504 kts 261°
2026-04-30 21:34 49.74238 -43.61531 37436 ft 504 kts 261°
2026-04-30 21:34 49.72822 -43.77632 37441 ft 504 kts 261°
2026-04-30 21:35 49.71864 -43.88370 37440 ft 504 kts 261°
2026-04-30 21:35 49.70903 -43.99030 37441 ft 504 kts 261°
2026-04-30 21:36 49.69926 -44.09761 37442 ft 504 kts 261°
2026-04-30 21:37 49.67941 -44.31213 37440 ft 505 kts 261°
2026-04-30 21:37 49.66933 -44.41934 37440 ft 505 kts 261°
2026-04-30 21:38 49.65917 -44.52638 37442 ft 505 kts 261°
2026-04-30 21:38 49.64890 -44.63356 37442 ft 505 kts 261°
2026-04-30 21:39 49.63852 -44.74065 37442 ft 505 kts 261°
2026-04-30 21:39 49.62806 -44.84762 37442 ft 505 kts 261°
2026-04-30 21:40 49.61749 -44.95461 37440 ft 505 kts 260°
2026-04-30 21:40 49.60682 -45.06153 37441 ft 505 kts 260°
2026-04-30 21:41 49.59605 -45.16851 37441 ft 505 kts 260°
2026-04-30 21:41 49.58519 -45.27530 37443 ft 505 kts 260°
2026-04-30 21:42 49.57608 -45.36412 37440 ft 505 kts 260°
2026-04-30 21:42 49.56502 -45.47098 37441 ft 505 kts 260°
2026-04-30 21:43 49.55388 -45.57772 37442 ft 505 kts 260°
2026-04-30 21:43 49.54262 -45.68453 37442 ft 505 kts 260°
2026-04-30 21:44 49.53127 -45.79129 37443 ft 505 kts 260°
2026-04-30 21:44 49.51981 -45.89803 37442 ft 506 kts 260°
2026-04-30 21:45 49.50825 -46.00477 37442 ft 506 kts 260°
2026-04-30 21:45 49.49659 -46.11149 37439 ft 506 kts 260°
2026-04-30 21:46 49.48482 -46.21826 37439 ft 506 kts 259°
2026-04-30 21:46 49.47296 -46.32491 37439 ft 506 kts 259°
2026-04-30 21:47 49.46100 -46.43150 37442 ft 506 kts 259°
2026-04-30 21:47 49.44895 -46.53796 37442 ft 506 kts 259°
2026-04-30 21:48 49.43832 -46.64482 37436 ft 506 kts 265°
2026-04-30 21:48 49.42476 -46.75030 37430 ft 504 kts 247°
2026-04-30 21:49 49.38996 -46.84316 37437 ft 502 kts 234°
2026-04-30 21:49 49.34962 -46.93084 37435 ft 503 kts 233°
2026-04-30 21:50 49.30987 -47.01833 37444 ft 504 kts 234°
2026-04-30 21:50 49.27014 -47.10669 37443 ft 504 kts 234°
2026-04-30 21:51 49.23036 -47.19510 37445 ft 504 kts 234°
2026-04-30 21:51 49.19153 -47.28109 37439 ft 504 kts 234°
2026-04-30 21:52 49.15165 -47.36909 37437 ft 503 kts 234°
2026-04-30 21:52 49.11168 -47.45684 37430 ft 503 kts 234°
2026-04-30 21:53 49.07168 -47.54434 37430 ft 503 kts 234°
2026-04-30 21:53 49.03160 -47.63172 37423 ft 503 kts 234°
2026-04-30 21:54 48.99145 -47.71895 37425 ft 503 kts 234°
2026-04-30 21:54 48.95122 -47.80608 37426 ft 503 kts 234°
2026-04-30 21:55 48.91096 -47.89300 37421 ft 503 kts 234°
2026-04-30 21:55 48.87062 -47.97981 37422 ft 503 kts 234°
2026-04-30 21:56 48.83022 -48.06646 37421 ft 503 kts 234°
2026-04-30 21:56 48.78979 -48.15292 37417 ft 503 kts 234°
2026-04-30 21:57 48.74922 -48.23938 37419 ft 503 kts 234°
2026-04-30 21:57 48.70860 -48.32566 37418 ft 503 kts 234°
2026-04-30 21:58 48.66796 -48.41174 37415 ft 503 kts 234°
2026-04-30 21:58 48.62723 -48.49770 37412 ft 503 kts 234°
2026-04-30 21:59 48.58647 -48.58347 37414 ft 503 kts 234°
2026-04-30 22:00 48.52521 -48.71187 37414 ft 502 kts 234°
2026-04-30 22:00 48.46382 -48.83992 37408 ft 502 kts 234°
2026-04-30 22:01 48.42286 -48.92503 37408 ft 502 kts 234°
2026-04-30 22:01 48.38185 -49.00997 37405 ft 502 kts 234°
2026-04-30 22:02 48.34079 -49.09476 37401 ft 501 kts 234°
2026-04-30 22:02 48.29967 -49.17939 37403 ft 501 kts 234°
2026-04-30 22:03 48.25853 -49.26381 37401 ft 501 kts 233°
2026-04-30 22:03 48.21733 -49.34809 37402 ft 501 kts 233°
2026-04-30 22:04 48.17610 -49.43217 37404 ft 501 kts 233°
2026-04-30 22:05 48.11417 -49.55798 37398 ft 500 kts 233°
2026-04-30 22:05 48.07287 -49.64154 37396 ft 499 kts 233°
2026-04-30 22:06 48.03157 -49.72486 37396 ft 498 kts 233°
2026-04-30 22:06 47.96992 -49.84876 37388 ft 497 kts 233°
2026-04-30 22:07 47.92863 -49.93142 37386 ft 497 kts 233°
2026-04-30 22:07 47.88733 -50.01386 37381 ft 496 kts 233°
2026-04-30 22:08 47.84602 -50.09606 37376 ft 496 kts 233°
2026-04-30 22:08 47.80462 -50.17819 37372 ft 496 kts 233°
2026-04-30 22:09 47.76324 -50.26005 37375 ft 495 kts 233°
2026-04-30 22:09 47.72178 -50.34181 37374 ft 495 kts 233°
2026-04-30 22:10 47.68023 -50.42350 37375 ft 495 kts 233°
2026-04-30 22:10 47.63865 -50.50502 37378 ft 495 kts 233°
2026-04-30 22:11 47.57624 -50.62691 37373 ft 495 kts 233°
2026-04-30 22:12 47.53458 -50.70798 37376 ft 494 kts 233°
2026-04-30 22:12 47.49289 -50.78888 37368 ft 494 kts 233°
2026-04-30 22:13 47.45114 -50.86963 37366 ft 494 kts 233°
2026-04-30 22:13 47.40941 -50.95011 37362 ft 494 kts 233°
2026-04-30 22:14 47.36761 -51.03051 37360 ft 493 kts 232°
2026-04-30 22:14 47.32579 -51.11069 37363 ft 493 kts 232°
2026-04-30 22:15 47.28394 -51.19071 37359 ft 493 kts 232°
2026-04-30 22:15 47.24200 -51.27065 37361 ft 493 kts 232°
2026-04-30 22:16 47.20034 -51.34984 37358 ft 492 kts 232°
2026-04-30 22:17 47.11646 -51.50860 37352 ft 491 kts 232°
2026-04-30 22:17 47.05350 -51.62716 37354 ft 491 kts 232°
2026-04-30 22:18 46.99051 -51.74526 37353 ft 489 kts 232°
2026-04-30 22:19 46.92759 -51.86274 37344 ft 488 kts 232°
2026-04-30 22:20 46.86467 -51.97971 37338 ft 487 kts 232°
2026-04-30 22:20 46.80176 -52.09618 37335 ft 486 kts 232°
2026-04-30 22:21 46.75982 -52.17355 37335 ft 486 kts 232°
2026-04-30 22:21 46.71787 -52.25073 37336 ft 486 kts 232°
2026-04-30 22:22 46.67587 -52.32778 37338 ft 485 kts 232°
2026-04-30 22:22 46.63386 -52.40462 37353 ft 485 kts 232°
2026-04-30 22:23 46.59181 -52.48133 37354 ft 485 kts 232°
2026-04-30 22:23 46.54974 -52.55788 37346 ft 484 kts 232°
2026-04-30 22:24 46.50764 -52.63426 37342 ft 484 kts 232°
2026-04-30 22:24 46.46549 -52.71051 37330 ft 484 kts 232°
2026-04-30 22:25 46.42332 -52.78661 37320 ft 484 kts 232°
2026-04-30 22:25 46.38109 -52.86258 37315 ft 484 kts 232°
2026-04-30 22:26 46.31765 -52.97635 37308 ft 484 kts 232°
2026-04-30 22:27 46.28252 -53.03915 37332 ft 484 kts 232°
2026-04-30 22:27 46.21200 -53.16478 37324 ft 484 kts 232°
2026-04-30 22:28 46.15522 -53.26552 37318 ft 484 kts 232°
2026-04-30 22:29 46.07014 -53.41579 37312 ft 484 kts 232°
2026-04-30 22:31 45.92083 -53.67757 37305 ft 483 kts 231°
2026-04-30 22:32 45.81409 -53.86319 37295 ft 482 kts 231°
2026-04-30 22:33 45.70758 -54.04724 37286 ft 481 kts 231°
2026-04-30 22:35 45.60069 -54.23070 37279 ft 480 kts 231°
2026-04-30 22:36 45.49371 -54.41310 37275 ft 479 kts 231°
2026-04-30 22:37 45.40813 -54.55819 37267 ft 478 kts 231°
2026-04-30 22:38 45.32247 -54.70266 37263 ft 477 kts 231°
2026-04-30 22:39 45.25821 -54.81055 37254 ft 477 kts 231°
2026-04-30 22:40 45.12936 -55.02564 37248 ft 476 kts 231°
2026-04-30 22:41 45.02194 -55.20371 37241 ft 475 kts 231°
2026-04-30 22:43 44.89292 -55.41609 37235 ft 474 kts 231°
2026-04-30 22:44 44.80683 -55.55693 37226 ft 474 kts 231°
2026-04-30 22:45 44.67751 -55.76727 37214 ft 474 kts 231°
2026-04-30 22:47 44.54826 -55.97620 37207 ft 474 kts 231°
2026-04-30 22:48 44.46306 -56.11679 37200 ft 472 kts 236°
2026-04-30 22:49 44.34839 -56.34111 37193 ft 473 kts 235°
2026-04-30 22:51 44.23162 -56.56357 37181 ft 474 kts 235°
2026-04-30 22:52 44.17303 -56.67457 37177 ft 474 kts 235°
2026-04-30 22:53 44.09473 -56.82227 37173 ft 474 kts 235°
2026-04-30 22:53 44.03600 -56.93249 37166 ft 475 kts 234°
2026-04-30 22:55 43.91168 -57.08406 37158 ft 481 kts 216°
2026-04-30 22:56 43.80122 -57.18871 37153 ft 481 kts 217°
2026-04-30 22:57 43.66294 -57.31914 37147 ft 481 kts 217°
2026-04-30 22:58 43.55225 -57.42298 37139 ft 481 kts 216°
2026-04-30 22:59 43.38612 -57.57799 37127 ft 481 kts 216°